Showing default

GEESAT 2-01, 58905

Orbit data source: Space-Track

GEESAT 2-01, 58905 is a payload satellite owned by GeeSpace (CN) in LEO that was launched on Fri, 02 Feb 2024 UTC via a CHANG ZHENG 2C launch vehicle from the Xichang Space Center, China (XSC). Payload-class satellites include a variety of spacecraft equipped with specific instruments for various scientific and technological missions. These include communications satellites like Starlink; space stations such as the ISS; scientific satellites like the Hubble; Earth observation satellites from companies like Planet Labs, Umbra, and HawkEye 360; GPS; miniature CubeSats for education and research; and military/defense satellites.

Loading next visibility...
Identifier
58905, 2024-023A
Orbit
LEO
Country
Flag of CNCN / PRC
Related business
Manufacturer
GWCG
Mission
Operational Commercial Navigation
Bus & Motor
GPS100, Unknown motor
Mass
130 kg wet, 130 kg dry
Launch date (UTC)
2024-02-02 (2 years ago)
Launch vehicle
CHANG ZHENG 2C
Launch site
Xichang Space Center, China (XSC)
Object type
Payload
Rocket body
Debris
Shape & HBR
Box + 2 Pan, 1.0 m
Radar Cross Section
0.833 m², Medium (>0.1 m² and < 1m²)

Expand to show TLE details & history
Last TLE update: 7 hours ago

TLE from 7 hours ago
0 GEESAT 2-01
1 58905U 24023A   25304.29924409  .00004187  00000-0  45436-3 0  9996
2 58905  49.9954 334.3988 0008149 289.4991  70.5069 14.89934945 94939
Epoch: 2025-10-31T07:10Z
TLE epoch observation values (Epoch: 2025-10-31T07:10:54.689Z)
Latitude
-0.00004°
Longitude
-173.17478°
Altitude
596.791 km
Speed
7.564 km/s
True Right ascension
22h 17m 35s
True Declination
0° 00' 00"
Sunlit
Object was in full shadow at epoch
Visualization orbit readout
Latitude
Unknown
Longitude
Unknown
Altitude
Unknown
Speed
Unknown
Apparent Right ascension
Unknown
Apparent Declination
Unknown
Sunlit
N/A
Visualization observer readout
Local Sidereal Time
09:32:50
Azimuth
Unknown
Elevation
Unknown
Doppler factor
Unknown
Orbital elements
Apogee altitude
604.585 km
Perigee altitude
593.214 km
Semi-major axis
6,977.037 km
Eccentricity
0.00081
Inclination
49.9954°
RAAN
334.3988°
Arg. of periapsis
289.4991°
True anomaly
70.59496°
Mean anomaly
70.5069°
Eccentric anomaly
70.55093°
Mean motion
3.72423 °/min
Orbital period
96.66 mins
BSTAR
0.00045436
Loading maneuver chart data...
Computing Atmospheric mass density...
Loading historical data...
Loading historical data...
Loading historical data...
Loading historical data...
Loading historical data...
Loading historical data...
Loading historical data...

Documentation

Showing up to 5 results
|